Regional Weather Roundup
Issued by NWS Green Bay, WI

Home | Current Version | Previous Version | Text Only | Print | Product List | Glossary On
Versions: 1 2 3 4 5 6 7 8 9 10 11 12 13 14 15 16 17 18 19 20 21 22 23 24 25 26 27 28 29 30 31 32 33 34 35 36 37 38 39 40 41 42 43 44 45 46 47 48 49 50
000
ASUS43 KGRB 190001
RWRGRB

NORTH-CENTRAL AND NORTHEAST WISCONSIN REGIONAL WEATHER ROUNDUP
NATIONAL WEATHER SERVICE GREEN BAY WI
700 PM CDT FRI AUG 18 2017

WIZ005-009-010>012-018-019-190100-
NORTH CENTRAL WISCONSIN

CITY           SKY/WX    TMP DP  RH WIND       PRES   REMARKS
IRONWOOD       PTCLDY    64  59  83 SW3       29.86S
MANITOWISH WTR NOT AVBL
ARBOR VITAE    NOT AVBL
EAGLE RIVER    NOT AVBL
LAND O LAKES   NOT AVBL
RHINELANDER    CLOUDY    65  58  78 CALM      29.88R
PHILLIPS       NOT AVBL
ANTIGO         NOT AVBL
TOMAHAWK       NOT AVBL
MERRILL        NOT AVBL
$$

WIZ013-073-190100-
NORTHEAST WISCONSIN

CITY           SKY/WX    TMP DP  RH WIND       PRES   REMARKS
IRON MOUNTAIN  CLOUDY    64  54  69 W5        29.83R
MARINETTE      CLOUDY    67  56  67 N6        29.84R
$$

WIZ017-030-035>037-045-190100-
CENTRAL WISCONSIN

CITY           SKY/WX    TMP DP  RH WIND       PRES   REMARKS
MEDFORD        NOT AVBL
WAUSAU         CLOUDY    67  59  75 W8        29.86R
MOSINEE        MOCLDY    66  61  82 W7        29.89R
MARSHFIELD     LGT RAIN  66  61  84 W6        29.88R
WISC RAPIDS    LGT RAIN  66  63  90 W6        29.89S
STEVENS POINT  NOT AVBL
WAUPACA        NOT AVBL
SHAWANO        NOT AVBL
CLINTONVILLE   NOT AVBL
WAUTOMA        CLOUDY    69  60  73 W9        29.88R
$$

WIZ038-039-048-051-190100-
FOX VALLEY

CITY           SKY/WX    TMP DP  RH WIND       PRES   REMARKS
NWS GREEN BAY  CLOUDY    69  63  81 W7        29.83S
APPLETON       MOCLDY    68  55  64 W10       29.84S
OSHKOSH        CLOUDY    70  59  68 NW8       29.85S
FOND DU LAC    CLOUDY    71  58  63 NW8       29.85S
$$

WIZ022-050-052-190100-
EAST CENTRAL WISCONSIN

CITY           SKY/WX    TMP DP  RH WIND       PRES   REMARKS
EPHRAIM        NOT AVBL
WASHINGTON ISL NOT AVBL
STURGEON BAY   CLOUDY    68  59  73 N13       29.83R
MANITOWOC      NOT AVBL
SHEBOYGAN      PTCLDY    72  62  71 NW8G16    29.84S
$$

LMZ563-521-522-541>543-190100-
LAKESHORE

STATION/POSITION TIME  TEMP    WIND        PRES    VSBY  WAVE
                       AIR SEA DIR/SP/G                  HT/PER
                 (UTC) (F)     (DEG/KT/KT) (MB)    (MI)  (FT/S)
SHEBOYGAN LKSHOR 2300   73     310/  9/ 12 1009.7S
KEWAUNEE LKSHORE 2330   71     290/  5/  8 1009.0S
NORTHPORT PIER   2340   68     300/ 11/ 21 1009.5S
N MID LAKE BUOY  2250   66 67  300/ 16/ 19 1009.0R         2/ 4
S GREEN BAY BUOY 2330   71 71  300/  6/  8 1009.6R
SISTER BAY LKSHO 2303   68     340/ 17/ 20   N/A
MENOMINEE LKSHOR 2330   69     330/ 11/ 13 1009.7R
$$



USA.gov is the U.S. government's official web portal to all federal, state and local government web resources and services.